Time,TemperatureF,DewpointF,PressureIn,WindDirection,WindDirectionDegrees,WindSpeedMPH,WindSpeedGustMPH,Humidity,HourlyPrecipIn,Conditions,Clouds,dailyrainin,SolarRadiationWatts/m^2,SoftwareType,DateUTC
2013-05-19 00:04:00,76.1,71.0,29.70,South,183,5.0,8.0,85,0.00,,,0.00,0,Custom,2013-05-19 05:04:00,
2013-05-19 00:09:00,76.1,71.0,29.71,South,185,0.0,7.0,85,0.00,,,0.00,0,Custom,2013-05-19 05:09:00,
2013-05-19 00:14:00,75.9,71.0,29.71,South,191,0.0,6.0,85,0.00,,,0.00,0,Custom,2013-05-19 05:14:00,
2013-05-19 00:19:00,75.9,71.0,29.70,South,176,0.0,6.0,86,0.00,,,0.00,0,Custom,2013-05-19 05:19:00,
2013-05-19 00:24:00,76.0,71.0,29.71,SSW,194,0.0,5.0,85,0.00,,,0.00,0,Custom,2013-05-19 05:24:00,
2013-05-19 00:29:00,75.7,71.0,29.70,SSE,167,0.0,5.0,86,0.00,,,0.00,0,Custom,2013-05-19 05:29:00,
2013-05-19 00:34:00,75.6,71.0,29.70,South,178,0.0,3.0,86,0.00,,,0.00,0,Custom,2013-05-19 05:34:00,
2013-05-19 00:39:00,75.6,71.0,29.69,South,190,0.0,7.0,86,0.00,,,0.00,0,Custom,2013-05-19 05:39:00,
2013-05-19 00:44:00,75.4,71.0,29.69,South,187,0.0,6.0,86,0.00,,,0.00,0,Custom,2013-05-19 05:44:00,
2013-05-19 00:49:00,75.4,71.0,29.69,South,181,0.0,7.0,86,0.00,,,0.00,0,Custom,2013-05-19 05:49:00,
2013-05-19 00:54:00,75.3,71.0,29.70,SSW,211,0.0,6.0,86,0.00,,,0.00,0,Custom,2013-05-19 05:54:00,
2013-05-19 00:59:00,75.2,71.0,29.70,South,181,5.0,5.0,86,0.00,,,0.00,0,Custom,2013-05-19 05:59:00,
2013-05-19 01:04:00,75.2,71.0,29.69,South,181,0.0,5.0,87,0.00,,,0.00,0,Custom,2013-05-19 06:04:00,
2013-05-19 01:09:00,75.0,71.0,29.69,South,188,0.0,5.0,87,0.00,,,0.00,0,Custom,2013-05-19 06:09:00,
2013-05-19 01:14:00,74.8,71.0,29.69,South,188,0.0,0.0,86,0.00,,,0.00,0,Custom,2013-05-19 06:14:00,
2013-05-19 01:19:00,74.7,71.0,29.70,South,188,0.0,0.0,87,0.00,,,0.00,0,Custom,2013-05-19 06:19:00,
2013-05-19 01:24:00,74.6,70.0,29.70,South,188,0.0,0.0,87,0.00,,,0.00,0,Custom,2013-05-19 06:24:00,
2013-05-19 01:29:00,74.5,70.0,29.73,WNW,289,1.0,8.0,87,0.00,,,0.00,0,Custom,2013-05-19 06:29:00,
2013-05-19 01:34:00,72.1,62.0,29.74,ENE,78,0.0,10.0,71,0.00,,,0.00,0,Custom,2013-05-19 06:34:00,
2013-05-19 01:39:00,70.4,60.0,29.72,WNW,283,5.0,7.0,68,0.00,,,0.00,0,Custom,2013-05-19 06:39:00,
2013-05-19 01:44:00,69.5,60.0,29.73,North,355,0.0,6.0,71,0.00,,,0.00,0,Custom,2013-05-19 06:44:00,
2013-05-19 01:49:00,69.2,60.0,29.72,WNW,290,0.0,5.0,72,0.00,,,0.00,0,Custom,2013-05-19 06:49:00,
2013-05-19 01:54:00,69.2,60.0,29.72,NNE,23,0.0,5.0,72,0.00,,,0.00,0,Custom,2013-05-19 06:54:00,
2013-05-19 01:59:00,68.5,60.0,29.72,NW,310,0.0,3.0,75,0.00,,,0.00,0,Custom,2013-05-19 06:59:00,
2013-05-19 02:04:00,68.2,60.0,29.72,NW,310,0.0,1.0,75,0.00,,,0.00,0,Custom,2013-05-19 07:04:00,
2013-05-19 02:09:00,68.0,60.0,29.72,NW,310,0.0,0.0,76,0.00,,,0.00,0,Custom,2013-05-19 07:09:00,
2013-05-19 02:14:00,67.8,60.0,29.72,ENE,69,0.0,7.0,76,0.00,,,0.00,0,Custom,2013-05-19 07:14:00,
2013-05-19 02:19:00,67.5,60.0,29.72,ENE,69,0.0,2.0,76,0.00,,,0.00,0,Custom,2013-05-19 07:19:00,
2013-05-19 02:24:00,67.2,60.0,29.71,ENE,69,0.0,2.0,77,0.00,,,0.00,0,Custom,2013-05-19 07:24:00,
2013-05-19 02:29:00,67.0,60.0,29.72,ENE,65,1.0,2.0,78,0.00,,,0.00,0,Custom,2013-05-19 07:29:00,
2013-05-19 02:34:00,66.8,60.0,29.72,North,360,0.0,3.0,78,0.00,,,0.00,0,Custom,2013-05-19 07:34:00,
2013-05-19 02:39:00,66.5,60.0,29.72,ENE,63,0.0,1.0,79,0.00,,,0.00,0,Custom,2013-05-19 07:39:00,
2013-05-19 02:44:00,66.5,60.0,29.72,ENE,76,0.0,4.0,79,0.00,,,0.00,0,Custom,2013-05-19 07:44:00,
2013-05-19 02:49:00,65.8,60.0,29.72,ENE,75,0.0,2.0,82,0.00,,,0.00,0,Custom,2013-05-19 07:49:00,
2013-05-19 02:54:00,65.1,61.0,29.72,ENE,75,0.0,0.0,85,0.00,,,0.00,0,Custom,2013-05-19 07:54:00,
2013-05-19 02:59:00,64.2,60.0,29.71,ENE,75,0.0,2.0,88,0.00,,,0.00,0,Custom,2013-05-19 07:59:00,
2013-05-19 03:04:00,64.0,61.0,29.71,ENE,75,0.0,0.0,89,0.04,,,0.05,0,Custom,2013-05-19 08:04:00,
2013-05-19 03:09:00,63.6,60.0,29.71,ENE,75,0.0,2.0,90,0.08,,,0.08,0,Custom,2013-05-19 08:09:00,
2013-05-19 03:14:00,63.5,61.0,29.71,ENE,75,0.0,2.0,90,0.09,,,0.09,0,Custom,2013-05-19 08:14:00,
2013-05-19 03:19:00,63.5,61.0,29.72,ENE,75,0.0,0.0,91,0.11,,,0.11,0,Custom,2013-05-19 08:19:00,
2013-05-19 03:24:00,63.4,61.0,29.72,South,187,0.0,6.0,92,0.18,,,0.22,0,Custom,2013-05-19 08:24:00,
2013-05-19 03:29:00,63.1,61.0,29.71,South,187,0.0,2.0,92,0.24,,,0.24,0,Custom,2013-05-19 08:29:00,
2013-05-19 03:34:00,63.2,61.0,29.71,South,187,0.0,0.0,93,0.25,,,0.25,0,Custom,2013-05-19 08:34:00,
2013-05-19 03:39:00,63.0,61.0,29.71,South,187,0.0,1.0,93,0.25,,,0.25,0,Custom,2013-05-19 08:39:00,
2013-05-19 03:44:00,62.7,61.0,29.70,South,187,0.0,0.0,93,0.25,,,0.25,0,Custom,2013-05-19 08:44:00,
2013-05-19 03:49:00,62.7,60.0,29.69,SE,139,0.0,4.0,92,0.25,,,0.25,0,Custom,2013-05-19 08:49:00,
2013-05-19 03:54:00,62.6,60.0,29.69,SE,129,2.0,3.0,93,0.25,,,0.25,0,Custom,2013-05-19 08:54:00,
2013-05-19 03:59:00,62.6,60.0,29.68,East,99,2.0,4.0,93,0.25,,,0.25,0,Custom,2013-05-19 08:59:00,
2013-05-19 04:04:00,62.6,61.0,29.68,East,97,0.0,3.0,93,0.21,,,0.25,0,Custom,2013-05-19 09:04:00,
2013-05-19 04:09:00,62.6,60.0,29.68,East,97,0.0,1.0,93,0.17,,,0.25,0,Custom,2013-05-19 09:09:00,
2013-05-19 04:14:00,62.5,60.0,29.68,East,97,0.0,2.0,92,0.16,,,0.25,0,Custom,2013-05-19 09:14:00,
2013-05-19 04:19:00,62.5,60.0,29.68,East,97,0.0,2.0,92,0.15,,,0.25,0,Custom,2013-05-19 09:19:00,
2013-05-19 04:24:00,62.5,60.0,29.67,East,95,0.0,2.0,93,0.07,,,0.25,0,Custom,2013-05-19 09:24:00,
2013-05-19 04:29:00,62.5,60.0,29.66,East,88,0.0,2.0,93,0.01,,,0.25,0,Custom,2013-05-19 09:29:00,
2013-05-19 04:34:00,62.5,60.0,29.66,ENE,68,0.0,4.0,93,0.00,,,0.25,0,Custom,2013-05-19 09:34:00,
2013-05-19 04:39:00,62.5,60.0,29.65,ENE,75,0.0,6.0,93,0.00,,,0.25,0,Custom,2013-05-19 09:39:00,
2013-05-19 04:44:00,62.4,60.0,29.65,ENE,63,0.0,3.0,92,0.00,,,0.25,0,Custom,2013-05-19 09:44:00,
2013-05-19 04:49:00,62.4,60.0,29.65,ENE,57,0.0,3.0,92,0.00,,,0.25,0,Custom,2013-05-19 09:49:00,
2013-05-19 04:54:00,62.4,60.0,29.65,ENE,57,0.0,4.0,92,0.00,,,0.25,0,Custom,2013-05-19 09:54:00,
2013-05-19 04:59:00,62.4,60.0,29.65,NE,39,0.0,4.0,92,0.00,,,0.25,0,Custom,2013-05-19 09:59:00,
2013-05-19 05:04:00,62.6,60.0,29.64,NE,52,0.0,7.0,92,0.00,,,0.25,0,Custom,2013-05-19 10:04:00,
2013-05-19 05:09:00,62.4,60.0,29.63,NE,52,0.0,2.0,92,0.00,,,0.25,0,Custom,2013-05-19 10:09:00,
2013-05-19 05:14:00,62.3,60.0,29.62,NE,56,0.0,3.0,92,0.00,,,0.25,0,Custom,2013-05-19 10:14:00,
2013-05-19 05:19:00,62.3,60.0,29.62,NE,56,1.0,2.0,92,0.00,,,0.25,0,Custom,2013-05-19 10:19:00,
2013-05-19 05:24:00,62.3,60.0,29.60,NE,56,0.0,2.0,92,0.00,,,0.25,0,Custom,2013-05-19 10:24:00,
2013-05-19 05:29:00,62.1,60.0,29.62,NE,56,0.0,0.0,92,0.00,,,0.25,0,Custom,2013-05-19 10:29:00,
2013-05-19 05:34:00,62.0,60.0,29.64,NE,56,0.0,0.0,92,0.00,,,0.25,0,Custom,2013-05-19 10:34:00,
2013-05-19 05:39:00,62.0,60.0,29.64,NE,56,0.0,0.0,92,0.00,,,0.25,0,Custom,2013-05-19 10:39:00,
2013-05-19 05:44:00,61.8,60.0,29.65,NE,56,0.0,0.0,93,0.00,,,0.25,0,Custom,2013-05-19 10:44:00,
2013-05-19 05:49:00,62.0,60.0,29.64,NE,56,0.0,0.0,93,0.00,,,0.25,0,Custom,2013-05-19 10:49:00,
2013-05-19 05:54:00,62.1,60.0,29.65,NE,56,0.0,0.0,93,0.00,,,0.25,0,Custom,2013-05-19 10:54:00,
2013-05-19 05:59:00,62.0,60.0,29.65,SE,137,3.0,3.0,93,0.00,,,0.25,0,Custom,2013-05-19 10:59:00,
2013-05-19 06:04:00,62.0,60.0,29.66,SE,138,0.0,3.0,93,0.00,,,0.25,0,Custom,2013-05-19 11:04:00,
2013-05-19 06:09:00,62.2,60.0,29.67,SSE,156,0.0,4.0,93,0.00,,,0.25,0,Custom,2013-05-19 11:09:00,
2013-05-19 06:14:00,62.2,60.0,29.67,SSE,156,0.0,3.0,92,0.00,,,0.25,0,Custom,2013-05-19 11:14:00,
2013-05-19 06:19:00,62.3,60.0,29.67,SSE,156,0.0,3.0,93,0.00,,,0.25,10.53,Custom,2013-05-19 11:19:00,
2013-05-19 06:24:00,62.3,60.0,29.67,SSE,158,3.0,4.0,93,0.00,,,0.25,14.82,Custom,2013-05-19 11:24:00,
2013-05-19 06:29:00,62.6,61.0,29.68,South,175,3.0,4.0,93,0.00,,,0.25,19.89,Custom,2013-05-19 11:29:00,
2013-05-19 06:34:00,62.8,61.0,29.69,South,177,5.0,6.0,93,0.00,,,0.25,21.84,Custom,2013-05-19 11:34:00,
2013-05-19 06:39:00,62.9,61.0,29.70,SSW,197,3.0,6.0,93,0.00,,,0.25,24.18,Custom,2013-05-19 11:39:00,
2013-05-19 06:44:00,63.0,61.0,29.72,South,185,0.0,4.0,93,0.00,,,0.25,27.3,Custom,2013-05-19 11:44:00,
2013-05-19 06:49:00,63.3,61.0,29.72,SSW,194,0.0,8.0,92,0.00,,,0.25,25.74,Custom,2013-05-19 11:49:00,
2013-05-19 06:54:00,63.5,61.0,29.73,South,184,4.0,7.0,92,0.00,,,0.25,15.6,Custom,2013-05-19 11:54:00,
2013-05-19 06:59:00,64.0,62.0,29.75,South,178,0.0,8.0,92,0.00,,,0.25,0,Custom,2013-05-19 11:59:00,
2013-05-19 07:04:00,64.0,62.0,29.78,South,175,0.0,9.0,93,0.07,,,0.33,0,Custom,2013-05-19 12:04:00,
2013-05-19 07:09:00,63.5,62.0,29.76,ESE,118,3.0,10.0,94,0.13,,,0.38,0,Custom,2013-05-19 12:09:00,
2013-05-19 07:14:00,63.2,62.0,29.76,SSE,163,3.0,8.0,94,0.14,,,0.39,0,Custom,2013-05-19 12:14:00,
2013-05-19 07:19:00,63.2,62.0,29.74,South,172,2.0,8.0,94,0.15,,,0.40,0,Custom,2013-05-19 12:19:00,
2013-05-19 07:24:00,63.4,62.0,29.74,South,189,0.0,8.0,94,0.16,,,0.41,0,Custom,2013-05-19 12:24:00,
2013-05-19 07:29:00,63.4,62.0,29.73,South,188,3.0,3.0,94,0.17,,,0.42,0,Custom,2013-05-19 12:29:00,
2013-05-19 07:34:00,63.5,62.0,29.73,South,178,0.0,3.0,94,0.19,,,0.44,0,Custom,2013-05-19 12:34:00,
2013-05-19 07:39:00,63.5,62.0,29.72,SSE,168,0.0,0.0,94,0.21,,,0.46,0,Custom,2013-05-19 12:39:00,
2013-05-19 07:44:00,63.5,62.0,29.72,SSE,153,0.0,6.0,94,0.23,,,0.48,0,Custom,2013-05-19 12:44:00,
2013-05-19 07:49:00,63.5,62.0,29.70,SSE,150,2.0,3.0,94,0.24,,,0.49,0,Custom,2013-05-19 12:49:00,
2013-05-19 07:54:00,63.5,62.0,29.69,SSE,150,0.0,2.0,94,0.25,,,0.51,0,Custom,2013-05-19 12:54:00,
2013-05-19 07:59:00,63.5,62.0,29.67,SSE,149,0.0,3.0,94,0.26,,,0.52,0,Custom,2013-05-19 12:59:00,
2013-05-19 08:04:00,63.5,62.0,29.66,ESE,114,4.0,4.0,93,0.19,,,0.52,0,Custom,2013-05-19 13:04:00,
2013-05-19 08:09:00,63.4,62.0,29.63,ENE,75,3.0,4.0,94,0.15,,,0.53,11.31,Custom,2013-05-19 13:09:00,
2013-05-19 08:14:00,63.4,62.0,29.61,East,79,0.0,4.0,94,0.14,,,0.53,15.6,Custom,2013-05-19 13:14:00,
2013-05-19 08:19:00,63.4,62.0,29.60,East,91,0.0,7.0,93,0.13,,,0.53,23.01,Custom,2013-05-19 13:19:00,
2013-05-19 08:24:00,63.5,62.0,29.62,ESE,114,0.0,5.0,93,0.12,,,0.53,38.22,Custom,2013-05-19 13:24:00,
2013-05-19 08:29:00,63.7,62.0,29.64,ESE,114,0.0,0.0,93,0.11,,,0.53,53.82,Custom,2013-05-19 13:29:00,
2013-05-19 08:34:00,63.9,62.0,29.63,ESE,114,0.0,0.0,93,0.08,,,0.53,63.18,Custom,2013-05-19 13:34:00,
2013-05-19 08:39:00,64.0,62.0,29.62,ESE,114,0.0,3.0,92,0.06,,,0.53,70.59,Custom,2013-05-19 13:39:00,
2013-05-19 08:44:00,64.2,62.0,29.62,ESE,114,0.0,0.0,92,0.04,,,0.53,83.46,Custom,2013-05-19 13:44:00,
2013-05-19 08:49:00,64.6,62.0,29.62,NE,50,0.0,2.0,92,0.03,,,0.53,114.27,Custom,2013-05-19 13:49:00,
2013-05-19 08:54:00,64.9,62.0,29.62,ENE,60,0.0,2.0,91,0.02,,,0.53,140.4,Custom,2013-05-19 13:54:00,
2013-05-19 08:59:00,65.3,63.0,29.62,South,178,0.0,5.0,91,0.01,,,0.53,173.16,Custom,2013-05-19 13:59:00,
2013-05-19 09:04:00,66.1,63.0,29.63,South,176,2.0,4.0,90,0.01,,,0.53,218.4,Custom,2013-05-19 14:04:00,
2013-05-19 09:09:00,66.7,63.0,29.62,South,185,0.0,4.0,89,0.00,,,0.53,223.47,Custom,2013-05-19 14:09:00,
2013-05-19 09:14:00,67.5,63.0,29.62,SSW,192,0.0,5.0,86,0.00,,,0.53,285.48,Custom,2013-05-19 14:14:00,
2013-05-19 09:19:00,68.2,63.0,29.62,SSW,194,0.0,4.0,83,0.00,,,0.53,448.5,Custom,2013-05-19 14:19:00,
2013-05-19 09:24:00,69.6,64.0,29.62,South,187,0.0,3.0,82,0.00,,,0.53,455.91,Custom,2013-05-19 14:24:00,
2013-05-19 09:29:00,69.6,63.0,29.63,South,177,0.0,4.0,81,0.00,,,0.53,198.51,Custom,2013-05-19 14:29:00,
2013-05-19 09:34:00,69.2,64.0,29.63,South,182,2.0,3.0,82,0.00,,,0.53,176.28,Custom,2013-05-19 14:34:00,
2013-05-19 09:39:00,69.2,64.0,29.63,SSW,197,3.0,4.0,83,0.00,,,0.53,530.79,Custom,2013-05-19 14:39:00,
2013-05-19 09:44:00,71.2,64.0,29.63,South,188,0.0,5.0,79,0.00,,,0.53,634.53,Custom,2013-05-19 14:44:00,
2013-05-19 09:49:00,72.2,65.0,29.62,SSW,206,4.0,5.0,78,0.00,,,0.53,425.49,Custom,2013-05-19 14:49:00,
2013-05-19 09:54:00,72.5,64.0,29.62,South,191,4.0,11.0,75,0.00,,,0.53,489.45,Custom,2013-05-19 14:54:00,
2013-05-19 09:59:00,72.2,64.0,29.62,South,181,0.0,8.0,75,0.00,,,0.53,560.43,Custom,2013-05-19 14:59:00,
2013-05-19 10:04:00,73.8,65.0,29.62,South,187,0.0,4.0,75,0.00,,,0.53,623.22,Custom,2013-05-19 15:04:00,
2013-05-19 10:09:00,73.5,64.0,29.62,SSW,196,5.0,8.0,73,0.00,,,0.53,632.19,Custom,2013-05-19 15:09:00,
2013-05-19 10:14:00,74.3,65.0,29.62,South,179,0.0,8.0,73,0.00,,,0.53,681.33,Custom,2013-05-19 15:14:00,
2013-05-19 10:19:00,74.8,65.0,29.62,SSE,158,3.0,9.0,71,0.00,,,0.53,696.15,Custom,2013-05-19 15:19:00,
2013-05-19 10:24:00,75.1,66.0,29.62,SSE,166,10.0,10.0,73,0.00,,,0.53,694.59,Custom,2013-05-19 15:24:00,
2013-05-19 10:29:00,75.0,65.0,29.62,South,183,7.0,10.0,71,0.00,,,0.53,599.43,Custom,2013-05-19 15:29:00,
2013-05-19 10:34:00,74.7,65.0,29.61,South,173,3.0,12.0,71,0.00,,,0.53,593.97,Custom,2013-05-19 15:34:00,
2013-05-19 10:39:00,75.2,65.0,29.62,SSE,167,9.0,15.0,71,0.00,,,0.53,574.47,Custom,2013-05-19 15:39:00,
2013-05-19 10:44:00,75.4,65.0,29.62,SSW,193,9.0,9.0,69,0.00,,,0.53,667.29,Custom,2013-05-19 15:44:00,
2013-05-19 10:49:00,75.9,66.0,29.62,ESE,123,1.0,10.0,71,0.00,,,0.53,758.55,Custom,2013-05-19 15:49:00,
2013-05-19 10:54:00,75.9,65.0,29.62,South,185,3.0,9.0,69,0.00,,,0.53,578.76,Custom,2013-05-19 15:54:00,
2013-05-19 10:59:00,75.0,65.0,29.62,South,179,2.0,13.0,71,0.00,,,0.53,520.26,Custom,2013-05-19 15:59:00,
2013-05-19 11:04:00,76.1,66.0,29.62,South,173,8.0,10.0,71,0.00,,,0.53,749.19,Custom,2013-05-19 16:04:00,
2013-05-19 11:09:00,76.2,66.0,29.62,ESE,102,12.0,13.0,70,0.00,,,0.53,772.59,Custom,2013-05-19 16:09:00,
2013-05-19 11:14:00,76.2,66.0,29.62,SSW,193,10.0,14.0,71,0.00,,,0.53,766.35,Custom,2013-05-19 16:14:00,
2013-05-19 11:19:00,77.1,66.0,29.62,South,184,10.0,10.0,69,0.00,,,0.53,825.63,Custom,2013-05-19 16:19:00,
2013-05-19 11:24:00,77.4,66.0,29.62,SSW,199,3.0,12.0,68,0.00,,,0.53,756.6,Custom,2013-05-19 16:24:00,
2013-05-19 11:29:00,77.5,66.0,29.62,South,186,7.0,12.0,69,0.00,,,0.53,806.13,Custom,2013-05-19 16:29:00,
2013-05-19 11:34:00,77.8,67.0,29.62,SSE,162,0.0,14.0,69,0.00,,,0.53,918.84,Custom,2013-05-19 16:34:00,
2013-05-19 11:39:00,78.4,67.0,29.62,East,93,0.0,7.0,67,0.00,,,0.53,856.05,Custom,2013-05-19 16:39:00,
2013-05-19 11:44:00,77.2,66.0,29.62,SSE,158,4.0,12.0,69,0.00,,,0.53,426.27,Custom,2013-05-19 16:44:00,
2013-05-19 11:49:00,78.3,67.0,29.62,South,183,5.0,10.0,67,0.00,,,0.53,580.71,Custom,2013-05-19 16:49:00,
2013-05-19 11:54:00,77.7,66.0,29.61,SSW,209,4.0,10.0,67,0.00,,,0.53,1026.87,Custom,2013-05-19 16:54:00,
2013-05-19 11:59:00,79.0,67.0,29.62,ESE,117,5.0,8.0,67,0.00,,,0.53,451.23,Custom,2013-05-19 16:59:00,
2013-05-19 12:04:00,78.9,66.0,29.60,South,178,2.0,8.0,65,0.00,,,0.53,932.49,Custom,2013-05-19 17:04:00,
2013-05-19 12:09:00,79.6,67.0,29.60,ESE,110,6.0,12.0,66,0.00,,,0.53,788.19,Custom,2013-05-19 17:09:00,
2013-05-19 12:14:00,77.9,65.0,29.60,South,174,0.0,8.0,65,0.00,,,0.53,289.77,Custom,2013-05-19 17:14:00,
2013-05-19 12:19:00,79.3,67.0,29.61,South,191,7.0,7.0,67,0.00,,,0.53,380.25,Custom,2013-05-19 17:19:00,
2013-05-19 12:24:00,78.6,66.0,29.61,South,177,8.0,8.0,66,0.00,,,0.53,295.23,Custom,2013-05-19 17:24:00,
2013-05-19 12:29:00,77.6,66.0,29.60,SSW,193,5.0,11.0,67,0.00,,,0.53,306.54,Custom,2013-05-19 17:29:00,
2013-05-19 12:34:00,78.1,66.0,29.60,South,189,11.0,11.0,67,0.00,,,0.53,373.23,Custom,2013-05-19 17:34:00,
2013-05-19 12:39:00,77.5,67.0,29.60,South,191,4.0,14.0,69,0.00,,,0.53,319.41,Custom,2013-05-19 17:39:00,
2013-05-19 12:44:00,78.6,67.0,29.59,SW,220,1.0,12.0,68,0.00,,,0.53,450.45,Custom,2013-05-19 17:44:00,
2013-05-19 12:49:00,79.4,68.0,29.59,South,174,4.0,14.0,68,0.00,,,0.53,389.61,Custom,2013-05-19 17:49:00,
2013-05-19 12:54:00,78.5,67.0,29.59,SSE,161,10.0,11.0,67,0.00,,,0.53,472.68,Custom,2013-05-19 17:54:00,
2013-05-19 12:59:00,78.4,67.0,29.59,SSW,197,7.0,9.0,69,0.00,,,0.53,390.39,Custom,2013-05-19 17:59:00,
2013-05-19 13:04:00,78.7,67.0,29.59,SSW,196,6.0,10.0,68,0.00,,,0.53,413.79,Custom,2013-05-19 18:04:00,
2013-05-19 13:09:00,78.8,67.0,29.59,South,181,3.0,10.0,67,0.00,,,0.53,285.48,Custom,2013-05-19 18:09:00,
2013-05-19 13:14:00,78.6,67.0,29.58,South,172,3.0,11.0,69,0.00,,,0.53,354.51,Custom,2013-05-19 18:14:00,
2013-05-19 13:19:00,79.2,67.0,29.58,South,176,4.0,12.0,67,0.00,,,0.53,509.34,Custom,2013-05-19 18:19:00,
2013-05-19 13:24:00,80.8,69.0,29.57,South,174,9.0,12.0,65,0.00,,,0.53,486.72,Custom,2013-05-19 18:24:00,
2013-05-19 13:29:00,80.3,68.0,29.57,South,171,5.0,18.0,67,0.00,,,0.53,634.92,Custom,2013-05-19 18:29:00,
2013-05-19 13:34:00,80.2,68.0,29.57,SSE,155,8.0,17.0,66,0.00,,,0.53,433.29,Custom,2013-05-19 18:34:00,
2013-05-19 13:39:00,79.9,68.0,29.58,South,187,0.0,14.0,68,0.00,,,0.53,382.2,Custom,2013-05-19 18:39:00,
2013-05-19 13:44:00,79.3,68.0,29.58,SSE,167,8.0,13.0,68,0.00,,,0.53,135.33,Custom,2013-05-19 18:44:00,
2013-05-19 13:49:00,79.6,69.0,29.57,South,187,0.0,14.0,70,0.00,,,0.53,302.64,Custom,2013-05-19 18:49:00,
2013-05-19 13:54:00,78.9,68.0,29.57,SSW,193,9.0,12.0,68,0.00,,,0.53,109.98,Custom,2013-05-19 18:54:00,
2013-05-19 13:59:00,78.3,68.0,29.57,SSW,194,0.0,16.0,70,0.00,,,0.53,212.16,Custom,2013-05-19 18:59:00,
2013-05-19 14:04:00,78.8,68.0,29.57,East,92,3.0,8.0,70,0.00,,,0.53,294.06,Custom,2013-05-19 19:04:00,
2013-05-19 14:09:00,79.8,69.0,29.57,SSE,149,6.0,11.0,69,0.00,,,0.53,336.57,Custom,2013-05-19 19:09:00,
2013-05-19 14:14:00,80.0,69.0,29.57,South,179,0.0,7.0,68,0.00,,,0.53,272.22,Custom,2013-05-19 19:14:00,
2013-05-19 14:19:00,80.4,69.0,29.57,South,184,1.0,6.0,68,0.00,,,0.53,306.93,Custom,2013-05-19 19:19:00,
2013-05-19 14:24:00,80.7,69.0,29.57,SSE,164,5.0,10.0,67,0.00,,,0.53,391.17,Custom,2013-05-19 19:24:00,
2013-05-19 14:29:00,80.8,69.0,29.56,SSW,197,4.0,11.0,67,0.00,,,0.53,783.51,Custom,2013-05-19 19:29:00,
2013-05-19 14:34:00,81.7,69.0,29.56,SSW,202,7.0,10.0,66,0.00,,,0.53,444.6,Custom,2013-05-19 19:34:00,
2013-05-19 14:39:00,82.0,69.0,29.55,South,186,6.0,10.0,65,0.00,,,0.53,488.28,Custom,2013-05-19 19:39:00,
2013-05-19 14:44:00,82.3,69.0,29.55,SSE,148,8.0,8.0,65,0.00,,,0.53,320.97,Custom,2013-05-19 19:44:00,
2013-05-19 14:49:00,81.1,69.0,29.56,South,185,5.0,12.0,68,0.00,,,0.53,299.13,Custom,2013-05-19 19:49:00,
2013-05-19 14:54:00,80.8,70.0,29.56,SSW,194,0.0,12.0,69,0.00,,,0.53,252.33,Custom,2013-05-19 19:54:00,
2013-05-19 14:59:00,80.9,70.0,29.55,South,188,5.0,9.0,69,0.00,,,0.53,204.36,Custom,2013-05-19 19:59:00,
2013-05-19 15:04:00,80.6,69.0,29.55,SSW,192,6.0,11.0,68,0.00,,,0.53,393.9,Custom,2013-05-19 20:04:00,
2013-05-19 15:09:00,81.3,70.0,29.55,South,178,3.0,9.0,70,0.00,,,0.53,321.36,Custom,2013-05-19 20:09:00,
2013-05-19 15:14:00,81.3,71.0,29.55,South,189,0.0,8.0,70,0.00,,,0.53,287.43,Custom,2013-05-19 20:14:00,
2013-05-19 15:19:00,82.0,70.0,29.55,SSW,193,4.0,4.0,67,0.00,,,0.53,366.21,Custom,2013-05-19 20:19:00,
2013-05-19 15:24:00,81.8,70.0,29.54,SSE,149,2.0,10.0,67,0.00,,,0.53,177.45,Custom,2013-05-19 20:24:00,
2013-05-19 15:29:00,81.5,70.0,29.53,SSW,196,6.0,12.0,67,0.00,,,0.53,214.89,Custom,2013-05-19 20:29:00,
2013-05-19 15:34:00,81.7,71.0,29.53,South,178,0.0,12.0,69,0.00,,,0.53,204.36,Custom,2013-05-19 20:34:00,
2013-05-19 15:39:00,81.8,70.0,29.53,SSE,159,0.0,6.0,68,0.00,,,0.53,303.81,Custom,2013-05-19 20:39:00,
2013-05-19 15:44:00,81.9,70.0,29.53,South,185,0.0,5.0,68,0.00,,,0.53,238.68,Custom,2013-05-19 20:44:00,
2013-05-19 15:49:00,81.8,69.0,29.53,South,182,3.0,7.0,66,0.00,,,0.53,248.04,Custom,2013-05-19 20:49:00,
2013-05-19 15:54:00,81.4,70.0,29.53,SSW,192,0.0,7.0,68,0.00,,,0.53,221.52,Custom,2013-05-19 20:54:00,
2013-05-19 15:59:00,81.7,70.0,29.52,SSE,157,4.0,6.0,67,0.00,,,0.53,375.96,Custom,2013-05-19 20:59:00,
2013-05-19 16:04:00,81.2,70.0,29.54,South,186,0.0,7.0,68,0.00,,,0.53,132.21,Custom,2013-05-19 21:04:00,
2013-05-19 16:09:00,80.5,70.0,29.55,WSW,239,3.0,8.0,70,0.00,,,0.53,92.43,Custom,2013-05-19 21:09:00,
2013-05-19 16:14:00,80.3,69.0,29.53,SSE,160,0.0,11.0,69,0.00,,,0.53,185.64,Custom,2013-05-19 21:14:00,
2013-05-19 16:19:00,81.6,70.0,29.50,South,179,0.0,7.0,69,0.00,,,0.53,807.3,Custom,2013-05-19 21:19:00,
2013-05-19 16:24:00,84.0,71.0,29.51,SSE,147,0.0,5.0,64,0.00,,,0.53,631.41,Custom,2013-05-19 21:24:00,
2013-05-19 16:29:00,83.3,70.0,29.52,SSW,197,8.0,16.0,63,0.00,,,0.53,648.96,Custom,2013-05-19 21:29:00,
2013-05-19 16:34:00,83.2,69.0,29.52,South,171,1.0,11.0,63,0.00,,,0.53,490.23,Custom,2013-05-19 21:34:00,
2013-05-19 16:39:00,84.5,69.0,29.49,South,171,4.0,9.0,61,0.00,,,0.53,598.26,Custom,2013-05-19 21:39:00,
2013-05-19 16:44:00,85.5,71.0,29.50,South,179,5.0,7.0,61,0.00,,,0.53,547.17,Custom,2013-05-19 21:44:00,
2013-05-19 16:49:00,85.0,71.0,29.51,SE,139,0.0,7.0,62,0.00,,,0.53,464.49,Custom,2013-05-19 21:49:00,
2013-05-19 16:54:00,85.0,70.0,29.50,South,185,9.0,11.0,61,0.00,,,0.53,449.28,Custom,2013-05-19 21:54:00,
2013-05-19 16:59:00,84.3,70.0,29.49,South,175,5.0,8.0,63,0.00,,,0.53,505.44,Custom,2013-05-19 21:59:00,
2013-05-19 17:04:00,84.7,70.0,29.49,SE,146,0.0,5.0,61,0.00,,,0.53,426.66,Custom,2013-05-19 22:04:00,
2013-05-19 17:09:00,83.9,71.0,29.49,South,170,0.0,4.0,66,0.00,,,0.53,423.54,Custom,2013-05-19 22:09:00,
2013-05-19 17:14:00,84.0,70.0,29.49,SSW,207,1.0,6.0,62,0.00,,,0.53,187.98,Custom,2013-05-19 22:14:00,
2013-05-19 17:19:00,83.3,70.0,29.49,SSW,195,5.0,5.0,64,0.00,,,0.53,161.85,Custom,2013-05-19 22:19:00,
2013-05-19 17:24:00,81.9,69.0,29.49,South,181,6.0,8.0,64,0.00,,,0.53,65.52,Custom,2013-05-19 22:24:00,
2013-05-19 17:29:00,81.1,69.0,29.50,South,188,0.0,10.0,67,0.00,,,0.53,51.48,Custom,2013-05-19 22:29:00,
2013-05-19 17:34:00,80.6,69.0,29.49,SSW,206,0.0,8.0,68,0.00,,,0.53,33.15,Custom,2013-05-19 22:34:00,
2013-05-19 17:39:00,80.1,69.0,29.50,SSW,193,0.0,6.0,69,0.00,,,0.53,32.76,Custom,2013-05-19 22:39:00,
2013-05-19 17:44:00,79.8,69.0,29.50,WSW,239,0.0,4.0,70,0.00,,,0.53,51.09,Custom,2013-05-19 22:44:00,
2013-05-19 17:49:00,79.5,69.0,29.51,South,177,0.0,5.0,71,0.00,,,0.53,40.95,Custom,2013-05-19 22:49:00,
2013-05-19 17:54:00,78.6,69.0,29.50,South,186,5.0,5.0,72,0.00,,,0.53,17.94,Custom,2013-05-19 22:54:00,
2013-05-19 17:59:00,78.2,69.0,29.49,South,184,0.0,6.0,74,0.00,,,0.53,30.42,Custom,2013-05-19 22:59:00,
2013-05-19 18:04:00,77.9,70.0,29.49,SSW,192,0.0,4.0,76,0.00,,,0.53,38.22,Custom,2013-05-19 23:04:00,
2013-05-19 18:09:00,77.3,69.0,29.49,SSW,193,0.0,5.0,76,0.00,,,0.53,41.34,Custom,2013-05-19 23:09:00,
2013-05-19 18:14:00,77.0,69.0,29.50,SSW,194,0.0,2.0,78,0.00,,,0.53,59.67,Custom,2013-05-19 23:14:00,
2013-05-19 18:19:00,76.9,69.0,29.49,SSW,194,0.0,0.0,78,0.00,,,0.53,62.01,Custom,2013-05-19 23:19:00,
2013-05-19 18:24:00,76.9,70.0,29.50,SSW,194,0.0,0.0,78,0.00,,,0.53,52.26,Custom,2013-05-19 23:24:00,
2013-05-19 18:29:00,76.6,70.0,29.50,SSW,194,0.0,2.0,79,0.00,,,0.53,33.15,Custom,2013-05-19 23:29:00,
2013-05-19 18:34:00,76.3,70.0,29.50,South,173,0.0,2.0,80,0.00,,,0.53,17.16,Custom,2013-05-19 23:34:00,
2013-05-19 18:39:00,76.1,70.0,29.50,South,172,0.0,4.0,80,0.00,,,0.53,0,Custom,2013-05-19 23:39:00,
2013-05-19 18:44:00,76.1,70.0,29.49,South,179,0.0,5.0,81,0.00,,,0.53,31.98,Custom,2013-05-19 23:44:00,
2013-05-19 18:49:00,76.1,70.0,29.49,South,179,0.0,0.0,80,0.00,,,0.53,27.3,Custom,2013-05-19 23:49:00,
2013-05-19 18:54:00,76.0,70.0,29.49,South,178,0.0,2.0,81,0.00,,,0.53,34.32,Custom,2013-05-19 23:54:00,
2013-05-19 18:59:00,76.0,69.0,29.50,South,178,0.0,1.0,80,0.00,,,0.53,26.52,Custom,2013-05-19 23:59:00,
2013-05-19 19:04:00,76.0,69.0,29.51,South,178,0.0,0.0,80,0.00,,,0.53,12.48,Custom,2013-05-20 00:04:00,
2013-05-19 19:09:00,75.7,69.0,29.52,South,178,0.0,0.0,81,0.00,,,0.53,0,Custom,2013-05-20 00:09:00,
2013-05-19 19:14:00,75.7,69.0,29.52,South,179,4.0,0.0,81,0.00,,,0.53,7.8,Custom,2013-05-20 00:14:00,
2013-05-19 19:19:00,75.6,70.0,29.52,South,183,0.0,4.0,82,0.00,,,0.53,0,Custom,2013-05-20 00:19:00,
2013-05-19 19:24:00,75.7,70.0,29.52,South,191,1.0,6.0,82,0.00,,,0.53,0,Custom,2013-05-20 00:24:00,
2013-05-19 19:29:00,75.5,69.0,29.53,WNW,290,2.0,3.0,81,0.00,,,0.53,0,Custom,2013-05-20 00:29:00,
2013-05-19 19:34:00,67.8,60.0,29.60,South,186,8.0,13.0,76,0.04,,,0.58,0,Custom,2013-05-20 00:34:00,
2013-05-19 19:39:00,63.3,59.0,29.58,SE,133,0.0,7.0,86,0.18,,,0.72,0,Custom,2013-05-20 00:39:00,
2013-05-19 19:44:00,62.9,60.0,29.56,South,174,0.0,8.0,90,0.22,,,0.75,0,Custom,2013-05-20 00:44:00,
2013-05-19 19:49:00,63.0,60.0,29.56,WNW,282,0.0,0.0,91,0.23,,,0.76,0,Custom,2013-05-20 00:49:00,
2013-05-19 19:54:00,62.8,60.0,29.57,SSW,199,0.0,3.0,91,0.24,,,0.77,0,Custom,2013-05-20 00:54:00,
2013-05-19 19:59:00,62.8,60.0,29.57,SSE,159,3.0,4.0,92,0.25,,,0.79,0,Custom,2013-05-20 00:59:00,
2013-05-19 20:04:00,62.6,60.0,29.59,SSW,198,5.0,5.0,92,0.27,,,0.80,0,Custom,2013-05-20 01:04:00,
2013-05-19 20:09:00,62.7,60.0,29.61,South,175,8.0,8.0,92,0.28,,,0.81,0,Custom,2013-05-20 01:09:00,
2013-05-19 20:14:00,63.2,60.0,29.59,South,183,3.0,16.0,91,0.29,,,0.82,0,Custom,2013-05-20 01:14:00,
2013-05-19 20:19:00,62.8,60.0,29.58,South,178,0.0,16.0,91,0.29,,,0.82,0,Custom,2013-05-20 01:19:00,
2013-05-19 20:24:00,62.6,60.0,29.55,SSW,199,0.0,0.0,90,0.31,,,0.83,0,Custom,2013-05-20 01:24:00,
2013-05-19 20:29:00,62.8,60.0,29.52,SSW,194,0.0,6.0,90,0.31,,,0.83,0,Custom,2013-05-20 01:29:00,
2013-05-19 20:34:00,63.0,60.0,29.53,South,184,7.0,7.0,89,0.26,,,0.83,0,Custom,2013-05-20 01:34:00,
2013-05-19 20:39:00,64.2,60.0,29.50,SSE,151,5.0,11.0,86,0.13,,,0.83,0,Custom,2013-05-20 01:39:00,
2013-05-19 20:44:00,64.0,59.0,29.51,SSE,158,9.0,9.0,85,0.09,,,0.84,0,Custom,2013-05-20 01:44:00,
2013-05-19 20:49:00,64.4,59.0,29.52,SSE,167,2.0,9.0,84,0.08,,,0.84,0,Custom,2013-05-20 01:49:00,
2013-05-19 20:54:00,64.3,59.0,29.52,SSE,150,0.0,10.0,84,0.07,,,0.84,0,Custom,2013-05-20 01:54:00,
2013-05-19 20:59:00,63.7,59.0,29.52,SSE,154,0.0,3.0,85,0.06,,,0.84,0,Custom,2013-05-20 01:59:00,
2013-05-19 21:04:00,63.5,59.0,29.52,SSE,168,3.0,8.0,85,0.04,,,0.84,0,Custom,2013-05-20 02:04:00,
2013-05-19 21:09:00,63.6,59.0,29.52,SSW,202,0.0,8.0,86,0.03,,,0.84,0,Custom,2013-05-20 02:09:00,
2013-05-19 21:14:00,63.6,59.0,29.52,SSW,205,0.0,4.0,86,0.02,,,0.84,0,Custom,2013-05-20 02:14:00,
2013-05-19 21:19:00,63.5,59.0,29.52,SSW,195,0.0,5.0,86,0.02,,,0.84,0,Custom,2013-05-20 02:19:00,
2013-05-19 21:24:00,63.7,60.0,29.53,SSE,162,0.0,5.0,86,0.01,,,0.84,0,Custom,2013-05-20 02:24:00,
2013-05-19 21:29:00,63.8,60.0,29.53,South,178,0.0,5.0,86,0.01,,,0.84,0,Custom,2013-05-20 02:29:00,
2013-05-19 21:34:00,63.8,60.0,29.53,SW,216,0.0,5.0,86,0.01,,,0.84,0,Custom,2013-05-20 02:34:00,
2013-05-19 21:39:00,63.7,60.0,29.54,SW,216,2.0,2.0,87,0.01,,,0.84,0,Custom,2013-05-20 02:39:00,
2013-05-19 21:44:00,63.5,59.0,29.54,SW,216,0.0,1.0,87,0.00,,,0.84,0,Custom,2013-05-20 02:44:00,
2013-05-19 21:49:00,63.2,60.0,29.55,SW,216,1.0,0.0,88,0.01,,,0.85,0,Custom,2013-05-20 02:49:00,
2013-05-19 21:54:00,63.3,60.0,29.57,SSE,152,2.0,4.0,89,0.01,,,0.85,0,Custom,2013-05-20 02:54:00,
2013-05-19 21:59:00,64.0,60.0,29.55,South,178,9.0,9.0,87,0.01,,,0.85,0,Custom,2013-05-20 02:59:00,
2013-05-19 22:04:00,64.0,60.0,29.55,SSW,193,0.0,8.0,87,0.01,,,0.85,0,Custom,2013-05-20 03:04:00,
2013-05-19 22:09:00,63.8,60.0,29.54,SSW,194,4.0,4.0,88,0.01,,,0.85,0,Custom,2013-05-20 03:09:00,
2013-05-19 22:14:00,64.1,61.0,29.54,South,189,2.0,5.0,88,0.01,,,0.85,0,Custom,2013-05-20 03:14:00,
2013-05-19 22:19:00,64.1,60.0,29.55,South,171,0.0,5.0,88,0.01,,,0.85,0,Custom,2013-05-20 03:19:00,
2013-05-19 22:24:00,64.0,61.0,29.53,South,172,0.0,3.0,89,0.01,,,0.86,0,Custom,2013-05-20 03:24:00,
2013-05-19 22:29:00,64.1,61.0,29.55,South,185,3.0,4.0,90,0.02,,,0.86,0,Custom,2013-05-20 03:29:00,
2013-05-19 22:34:00,64.5,62.0,29.57,South,187,0.0,8.0,91,0.02,,,0.86,0,Custom,2013-05-20 03:34:00,
2013-05-19 22:39:00,64.5,62.0,29.59,SSW,206,0.0,5.0,91,0.02,,,0.86,0,Custom,2013-05-20 03:39:00,
2013-05-19 22:44:00,64.8,62.0,29.60,SSW,197,0.0,9.0,91,0.02,,,0.87,0,Custom,2013-05-20 03:44:00,
2013-05-19 22:49:00,64.9,62.0,29.60,SSW,200,3.0,7.0,91,0.02,,,0.87,0,Custom,2013-05-20 03:49:00,
2013-05-19 22:55:00,65.1,62.0,29.55,ESE,105,0.0,7.0,91,0.03,,,0.88,0,Custom,2013-05-20 03:55:00,
2013-05-19 23:00:00,64.9,62.0,29.50,South,190,5.0,7.0,90,0.04,,,0.90,0,Custom,2013-05-20 04:00:00,
2013-05-19 23:01:00,64.9,62.0,29.54,South,190,3.0,7.0,90,0.04,,,0.90,0,Custom,2013-05-20 04:01:00,
2013-05-19 23:02:00,64.9,62.0,29.54,South,190,0.0,7.0,90,0.04,,,0.90,0,Custom,2013-05-20 04:02:00,
2013-05-19 23:03:00,64.7,62.0,29.57,South,190,0.0,6.0,91,0.04,,,0.90,0,Custom,2013-05-20 04:03:00,
2013-05-19 23:06:00,64.6,62.0,29.57,WNW,290,0.0,6.0,91,0.04,,,0.90,0,Custom,2013-05-20 04:06:00,
2013-05-19 23:11:00,64.3,62.0,29.57,SSE,152,3.0,0.0,91,0.04,,,0.90,0,Custom,2013-05-20 04:11:00,
2013-05-19 23:16:00,64.1,61.0,29.58,SSE,153,0.0,3.0,91,0.04,,,0.90,0,Custom,2013-05-20 04:16:00,
2013-05-19 23:21:00,63.9,61.0,29.58,SSE,153,0.0,0.0,91,0.04,,,0.90,0,Custom,2013-05-20 04:21:00,
2013-05-19 23:26:00,63.7,61.0,29.58,SSE,153,0.0,0.0,91,0.03,,,0.90,0,Custom,2013-05-20 04:26:00,
2013-05-19 23:31:00,63.4,61.0,29.59,SSE,153,0.0,0.0,91,0.03,,,0.90,0,Custom,2013-05-20 04:31:00,
2013-05-19 23:36:00,63.5,61.0,29.59,SSE,153,0.0,0.0,91,0.03,,,0.90,0,Custom,2013-05-20 04:36:00,
2013-05-19 23:41:00,63.4,61.0,29.59,SSE,153,0.0,0.0,92,0.03,,,0.90,0,Custom,2013-05-20 04:41:00,
2013-05-19 23:46:00,63.2,61.0,29.59,SSE,153,0.0,0.0,92,0.02,,,0.90,0,Custom,2013-05-20 04:46:00,
2013-05-19 23:51:00,63.1,61.0,29.59,SSE,153,0.0,0.0,92,0.02,,,0.90,0,Custom,2013-05-20 04:51:00,
2013-05-19 23:56:00,63.0,61.0,29.58,SSE,153,0.0,0.0,92,0.00,,,0.90,0,Custom,2013-05-20 04:56:00,